Location: *
(33.6842°N, 117.7925°W)
Time: 01:43:58
(UTC+00:00)

USA 238 DEB - Pass Details

Date: 21 October 2019
Orbit: 1026 x 1186 km, 63.4° (Epoch: 19 November)

Event Time Altitude Azimuth Distance (km) Brightness Sun altitude
Exits shadow 12:23:25 34° 261° (W) 1,818 4.3 -20.9°
Maximum altitude 12:24:11 35° 249° (WSW) 1,796 4.4 -20.8°
Drops below altitude 10° 12:30:46 10° 186° (S) 3,097 6.0 -19.4°
Sets 12:33:46 0° 178° (S) 4,061 6.8 -18.8°
